User: anonymous   Login
Location: Unspecified
(0.0000°N, 0.0000°E)
Time: 12:52:38
(UTC+00:00)
Language:

USA-164 - Orbit

View from above orbital plane
View from above orbital plane
View from above satellite
View from above satellite

Ground track
Ground track

The orbit data is extracted from the following two-line orbital elements,

1 27168U 02001A   17227.14997737 0.00000000  00000-0  00000-0 0    06
2 27168   7.6903  36.7165 0002000 269.4151  90.6354  1.00270000    06
Epoch (UTC): 15 August 2017 03:35:58
Eccentricity: 0.0002000
inclination: 7.6903°
perigee height: 35778 km
apogee height: 35795 km
right ascension of ascending node: 36.7165°
argument of perigee: 269.4151°
revolutions per day: 1.00270000
mean anomaly at epoch: 90.6354°
orbit number at epoch: 0

The dashed part of the orbit path shows where the satellite is in the earth's shadow,  

DLR